When you browse on this site, cookies collect data to enhance your experience and personalize the content and advertising you see.
Visit our Privacy Policy to learn more. By continuing to use the site, you agree to this use of cookies and data.
EN

Hourly Weather Nakhchivan

Today, 8 July, Wednesday

Time Temperature Precipitation Wind Pressure Humidity
00:00 +28°C° 0 mm 2 mps 684 mmHg 27%
01:00 +28°C° 0 mm 2 mps 684 mmHg 28%
02:00 +28°C° 0 mm 2 mps 684 mmHg 29%
03:00 +28°C° 0 mm 1 mps 684 mmHg 30%
04:00 +28°C° 0 mm 1 mps 684 mmHg 30%
05:00 +28°C° 0 mm 1 mps 684 mmHg 30%
06:00 +28°C° 0 mm 1 mps 685 mmHg 31%
07:00 +30°C° 0 mm 1 mps 685 mmHg 29%
08:00 +31°C° 0 mm 2 mps 685 mmHg 26%
09:00 +32°C° 0 mm 2 mps 685 mmHg 23%
10:00 +35°C° 0 mm 2 mps 685 mmHg 21%
11:00 +35°C° 0 mm 1 mps 685 mmHg 20%
12:00 +36°C° 0 mm 1 mps 685 mmHg 18%
13:00 +37°C° 0 mm 1 mps 685 mmHg 17%
14:00 +39°C° 0 mm 1 mps 685 mmHg 16%
15:00 +39°C° 0 mm 1 mps 684 mmHg 15%
16:00 +39°C° 0 mm 1 mps 684 mmHg 16%
17:00 +37°C° 0 mm 1 mps 684 mmHg 18%
18:00 +36°C° 0 mm 1 mps 684 mmHg 19%
19:00 +37°C° 0 mm 2 mps 684 mmHg 21%
20:00 +36°C° 0 mm 2 mps 684 mmHg 22%
21:00 +35°C° 0 mm 3 mps 685 mmHg 24%
22:00 +34°C° 0 mm 2 mps 685 mmHg 25%
23:00 +32°C° 0 mm 2 mps 685 mmHg 27%

Tomorrow, 9 July, Thursday

Time Temperature Precipitation Wind Pressure Humidity
00:00 +32°C° 0 mm 2 mps 685 mmHg 29%
01:00 +30°C° 0 mm 3 mps 685 mmHg 32%
02:00 +29°C° 0 mm 3 mps 685 mmHg 36%
03:00 +28°C° 0 mm 3 mps 684 mmHg 40%
04:00 +28°C° 0 mm 3 mps 685 mmHg 41%
05:00 +27°C° 0 mm 3 mps 685 mmHg 42%
06:00 +27°C° 0 mm 3 mps 685 mmHg 43%
07:00 +28°C° 0 mm 3 mps 685 mmHg 40%
08:00 +30°C° 0 mm 3 mps 685 mmHg 37%
09:00 +31°C° 0 mm 2 mps 685 mmHg 33%
10:00 +32°C° 0 mm 2 mps 685 mmHg 31%
11:00 +34°C° 0 mm 2 mps 685 mmHg 28%
12:00 +36°C° 0 mm 2 mps 685 mmHg 25%
13:00 +36°C° 0 mm 2 mps 685 mmHg 24%
14:00 +37°C° 0 mm 3 mps 685 mmHg 23%
15:00 +38°C° 0 mm 3 mps 685 mmHg 22%
16:00 +37°C° 0.1 mm 3 mps 685 mmHg 24%
17:00 +36°C° 0.1 mm 3 mps 685 mmHg 27%
18:00 +35°C° 0.1 mm 2 mps 685 mmHg 29%
19:00 +32°C° 0.2 mm 2 mps 685 mmHg 32%
20:00 +31°C° 0.2 mm 2 mps 686 mmHg 35%
21:00 +30°C° 0.2 mm 2 mps 686 mmHg 38%
22:00 +29°C° 0.8 mm 2 mps 686 mmHg 42%
23:00 +28°C° 0.8 mm 2 mps 686 mmHg 46%

Day after tomorrow, 10 July, Friday

Time Temperature Precipitation Wind Pressure Humidity
00:00 +27°C° 0.8 mm 2 mps 686 mmHg 50%
01:00 +27°C° 0.2 mm 2 mps 686 mmHg 52%
02:00 +26°C° 0.2 mm 2 mps 686 mmHg 53%
03:00 +26°C° 0.2 mm 1 mps 686 mmHg 55%
04:00 +26°C° 0 mm 1 mps 686 mmHg 54%
05:00 +26°C° 0 mm 1 mps 686 mmHg 53%
06:00 +26°C° 0 mm 1 mps 686 mmHg 52%
07:00 +27°C° 0.3 mm 2 mps 686 mmHg 51%
08:00 +27°C° 0.3 mm 3 mps 686 mmHg 50%
09:00 +28°C° 0.3 mm 4 mps 686 mmHg 49%
10:00 +29°C° 0 mm 3 mps 686 mmHg 44%
11:00 +31°C° 0 mm 2 mps 686 mmHg 40%
12:00 +32°C° 0 mm 2 mps 686 mmHg 35%
13:00 +35°C° 0 mm 2 mps 686 mmHg 32%
14:00 +36°C° 0 mm 3 mps 686 mmHg 29%
15:00 +37°C° 0 mm 4 mps 686 mmHg 26%
16:00 +35°C° 0.2 mm 4 mps 686 mmHg 32%
17:00 +33°C° 0.2 mm 4 mps 686 mmHg 38%
18:00 +30°C° 0.2 mm 4 mps 685 mmHg 43%
19:00 +29°C° 0.7 mm 3 mps 686 mmHg 46%
20:00 +29°C° 0.7 mm 2 mps 686 mmHg 48%
21:00 +28°C° 0.7 mm 1 mps 687 mmHg 51%
22:00 +28°C° 0.2 mm 1 mps 687 mmHg 52%
23:00 +27°C° 0.2 mm 2 mps 687 mmHg 54%

11 July, Saturday

Time Temperature Precipitation Wind Pressure Humidity
00:00 +27°C° 0.2 mm 2 mps 686 mmHg 56%
01:00 +26°C° 0.2 mm 2 mps 686 mmHg 60%
02:00 +25°C° 0.2 mm 2 mps 686 mmHg 64%
03:00 +24°C° 0.2 mm 2 mps 686 mmHg 68%
04:00 +24°C° 0.1 mm 1 mps 686 mmHg 67%
05:00 +24°C° 0.1 mm 1 mps 686 mmHg 66%
06:00 +22°C° 0.1 mm 0 mps 686 mmHg 66%
07:00 +26°C° 0 mm 1 mps 686 mmHg 60%
08:00 +27°C° 0 mm 1 mps 686 mmHg 55%
09:00 +28°C° 0 mm 1 mps 686 mmHg 49%
10:00 +29°C° 0 mm 2 mps 686 mmHg 45%
11:00 +30°C° 0 mm 2 mps 686 mmHg 40%
12:00 +32°C° 0 mm 2 mps 686 mmHg 35%
13:00 +34°C° 0 mm 2 mps 686 mmHg 33%
14:00 +35°C° 0 mm 2 mps 686 mmHg 30%
15:00 +36°C° 0 mm 3 mps 686 mmHg 27%
16:00 +34°C° 0.3 mm 4 mps 686 mmHg 34%
17:00 +32°C° 0.3 mm 6 mps 685 mmHg 40%
18:00 +29°C° 0.3 mm 7 mps 685 mmHg 46%
19:00 +29°C° 0.3 mm 5 mps 685 mmHg 46%
20:00 +28°C° 0.3 mm 4 mps 686 mmHg 46%
21:00 +28°C° 0.3 mm 2 mps 686 mmHg 47%
22:00 +28°C° 0 mm 2 mps 686 mmHg 48%
23:00 +27°C° 0 mm 2 mps 686 mmHg 49%

12 July, Sunday

Time Temperature Precipitation Wind Pressure Humidity
00:00 +27°C° 0 mm 1 mps 686 mmHg 50%
01:00 +26°C° 0 mm 1 mps 686 mmHg 53%
02:00 +26°C° 0 mm 1 mps 685 mmHg 56%
03:00 +25°C° 0 mm 1 mps 685 mmHg 59%
04:00 +25°C° 0 mm 1 mps 685 mmHg 58%
05:00 +23°C° 0 mm 0 mps 685 mmHg 58%
06:00 +23°C° 0 mm 0 mps 685 mmHg 57%
07:00 +26°C° 0 mm 1 mps 685 mmHg 52%
08:00 +27°C° 0 mm 1 mps 685 mmHg 48%
09:00 +28°C° 0 mm 1 mps 685 mmHg 43%
10:00 +30°C° 0 mm 1 mps 685 mmHg 39%
11:00 +31°C° 0 mm 1 mps 685 mmHg 35%
12:00 +32°C° 0 mm 1 mps 685 mmHg 31%
13:00 +34°C° 0 mm 1 mps 685 mmHg 28%
14:00 +36°C° 0 mm 2 mps 685 mmHg 26%
15:00 +37°C° 0 mm 2 mps 684 mmHg 23%
16:00 +37°C° 0 mm 2 mps 684 mmHg 23%
17:00 +37°C° 0 mm 3 mps 684 mmHg 23%
18:00 +37°C° 0 mm 4 mps 684 mmHg 23%
19:00 +35°C° 0 mm 4 mps 684 mmHg 28%
20:00 +34°C° 0 mm 4 mps 684 mmHg 33%
21:00 +31°C° 0 mm 3 mps 685 mmHg 37%
22:00 +30°C° 0.1 mm 3 mps 684 mmHg 40%
23:00 +29°C° 0.1 mm 3 mps 684 mmHg 43%

13 July, Monday

Time Temperature Precipitation Wind Pressure Humidity
00:00 +28°C° 0.1 mm 3 mps 684 mmHg 46%
01:00 +28°C° 0 mm 2 mps 684 mmHg 48%
02:00 +28°C° 0 mm 1 mps 683 mmHg 50%
03:00 +27°C° 0 mm 1 mps 683 mmHg 52%
04:00 +27°C° 0 mm 1 mps 683 mmHg 51%
05:00 +27°C° 0 mm 1 mps 683 mmHg 50%
06:00 +27°C° 0 mm 1 mps 683 mmHg 49%
07:00 +28°C° 0 mm 1 mps 683 mmHg 46%
08:00 +29°C° 0 mm 1 mps 683 mmHg 43%
09:00 +30°C° 0 mm 1 mps 683 mmHg 40%
10:00 +31°C° 0 mm 1 mps 683 mmHg 37%
11:00 +33°C° 0 mm 1 mps 683 mmHg 33%
12:00 +34°C° 0 mm 1 mps 683 mmHg 30%
13:00 +36°C° 0 mm 2 mps 683 mmHg 28%
14:00 +37°C° 0 mm 2 mps 682 mmHg 25%
15:00 +38°C° 0 mm 3 mps 682 mmHg 22%
16:00 +36°C° 0.2 mm 3 mps 682 mmHg 28%
17:00 +34°C° 0.2 mm 4 mps 682 mmHg 34%
18:00 +32°C° 0.2 mm 4 mps 682 mmHg 40%
19:00 +30°C° 0.2 mm 4 mps 682 mmHg 41%
20:00 +30°C° 0.2 mm 5 mps 683 mmHg 42%
21:00 +29°C° 0.2 mm 5 mps 683 mmHg 42%
22:00 +29°C° 0.1 mm 3 mps 683 mmHg 44%
23:00 +28°C° 0.1 mm 2 mps 683 mmHg 45%
Show more